#timestamp,LO_Frequency,Hit,StdDev 
1703304015.8,286047001.2,N
1703304035.7,286046999.7,N
1703304055.5,286047000.1,N
1703304075.4,286047001.0,N
1703304095.2,286047000.3,N
1703304115.0,286047000.0,N
1703304115.9,286047000.0,N
1703304135.8,286047000.6,N
1703304155.6,286047000.4,N
1703304175.5,286047000.4,N
1703304195.3,286047000.6,N
1703304215.1,286047000.9,N
1703304235.9,286047000.2,N
1703304255.7,286047002.7,N
1703304275.5,286047001.7,N
1703304295.4,286047002.0,N
1703304315.2,286047001.3,N
1703304335.1,286047002.1,N
1703304336.0,286047002.1,N
1703304355.8,286047001.5,N
1703304375.6,286047001.5,N
1703304395.5,286047002.5,N
1703304415.3,286047000.9,N
1703304435.1,286046998.4,N
1703304455.9,286047001.2,N
1703304475.7,286047001.1,N
1703304495.6,286046998.4,N
1703304515.4,286046999.4,N
1703304535.2,286046999.3,N
1703304555.1,286046998.3,N
1703304556.0,286046998.3,N
1703304575.8,286046999.5,N
1703304595.7,286046999.6,N
1703304615.5,286046999.4,N
1703304635.3,286046998.7,N
1703304655.2,286046997.0,N
1703304675.0,286046997.0,N
1703304675.9,286046997.0,N
1703304695.7,286046999.1,N
1703304715.6,286046999.6,N
1703304735.4,286046998.4,N
1703304755.3,286046998.1,N
1703304775.1,286047000.8,N
1703304776.0,286047000.8,N
1703304795.8,286046998.7,N
1703304815.7,286047000.8,N
1703304835.5,286047001.2,N
1703304855.3,286046998.4,N
1703304875.2,286047000.6,N
1703304895.0,286047000.5,N
1703304895.9,286047000.5,N
1703304915.8,286047000.1,N
1703304935.6,286047000.4,N
1703304955.4,286047000.9,N
1703304975.3,286046999.9,N
1703304995.1,286047000.7,N
1703305015.9,286047000.0,N
1703305035.7,286046999.7,N
1703305055.5,286047002.1,N
1703305075.4,286047000.6,N
1703305095.2,286047000.0,N
1703305115.1,286047000.3,N
1703305116.0,286047000.3,N
1703305135.8,286047001.1,N
1703305155.6,286047000.5,N
1703305175.5,286046998.3,N
1703305195.3,286046998.5,N
1703305215.1,286047000.7,N
1703305235.9,286047000.4,N
1703305255.7,286047000.7,N
1703305275.6,286047000.8,N
1703305295.4,286046998.3,N
1703305315.2,286046998.7,N
1703305335.1,286047000.8,N
1703305336.0,286047000.8,N
1703305355.8,286047000.6,N
1703305375.6,286047000.4,N
1703305395.5,286046999.8,N
1703305415.3,286047002.8,Y
1703305435.2,286046999.8,P
1703305455.9,286047000.4,N
1703305475.7,286046999.8,N
1703305495.6,286046998.1,Y
1703305515.4,286046998.9,P
1703305535.3,286047001.0,N
1703305555.1,286047000.2,N
1703305556.0,286047000.2,N
1703305575.8,286047001.0,N
1703305595.7,286047000.0,N
1703305615.5,286047002.7,Y
1703305635.4,286047001.5,P
1703305655.2,286047002.2,P
1703305675.0,286047001.1,N
1703305675.9,286047001.1,N
1703305695.8,286047000.7,N
1703305715.6,286046996.9,Y
1703305735.5,286046996.6,P
1703305755.3,286046999.3,N
1703305775.1,286046998.2,N
1703305795.9,286046998.4,N
1703305815.7,286046999.1,N
1703305835.5,286046998.9,N
1703305855.4,286046998.7,N
1703305875.2,286046998.1,N
1703305895.1,286046998.2,N
1703305896.0,286046998.2,N
1703305915.8,286047000.3,N
1703305935.6,286046998.5,N
1703305955.5,286046998.9,N
1703305975.3,286046999.6,N
1703305995.2,286046997.0,N
1703306015.9,286046999.5,N
1703306035.7,286046999.3,N
1703306055.6,286046998.4,N
1703306075.4,286046998.6,N
1703306095.3,286047000.6,N
1703306115.1,286047002.1,N
1703306116.0,286047002.1,N
1703306135.8,286047001.6,N
1703306155.7,286047002.7,N
1703306175.5,286047000.5,N
1703306195.3,286047002.7,N
1703306215.2,286047001.1,N
1703306235.0,286047000.6,N
1703306235.9,286047000.6,N
1703306255.8,286047000.7,N
1703306275.2,286046998.2,N
1703306295.0,286047000.5,N
1703306295.9,286047000.5,N
1703306315.7,286046999.8,N
1703306335.6,286047002.7,N
1703306355.4,286047000.5,N
1703306375.3,286047002.6,N
1703306395.1,286047002.6,N
1703306396.0,286047002.6,N
1703306415.8,286047001.7,N
1703306435.7,286047003.9,N
1703306455.5,286047004.3,N
1703306475.3,286047003.9,N
1703306495.2,286047003.6,N
1703306515.0,286047004.2,N
1703306515.9,286047004.2,N
1703306535.8,286047004.3,N
1703306555.6,286047005.9,Y
1703306575.4,286047001.7,P
1703306595.3,286047002.1,P
1703306615.1,286047002.7,P
1703306635.9,286047002.8,Y
1703306655.7,286046999.0,P
1703306675.5,286046997.2,N
1703306695.4,286046997.1,N
1703306715.2,286046995.7,N
1703306735.0,286046997.9,N
1703306735.9,286046997.9,N
1703306755.8,286046995.5,N
1703306775.6,286046997.3,N
1703306795.5,286046995.3,N
1703306815.3,286046995.3,N
1703306835.1,286046997.1,N
1703306855.9,286046996.9,N
1703306875.7,286046998.7,N
1703306895.5,286046996.8,N
1703306915.4,286046998.8,N
1703306935.2,286047001.1,N
1703306955.1,286046998.7,N
1703306956.0,286046998.7,N
1703306975.8,286046999.4,N
1703306995.6,286046998.6,N
1703307015.5,286046999.0,N
1703307035.3,286046996.5,N
1703307055.1,286046999.4,N
1703307075.9,286046998.3,N
1703307095.7,286046998.9,N
1703307115.6,286046996.6,N
1703307135.4,286046997.4,N
1703307155.2,286046995.1,Y
1703307175.1,286046999.6,P
1703307176.0,286046999.6,N
1703307195.8,286046998.1,N
1703307215.7,286047000.6,N
1703307235.5,286047000.8,N
1703307255.3,286047000.4,N
1703307275.2,286047002.7,N
1703307295.9,286047002.3,N
1703307315.7,286047002.6,N
1703307335.6,286047000.0,N
1703307355.4,286047001.2,N
1703307375.2,286046998.5,N
1703307395.1,286047000.7,N
1703307396.0,286047000.7,N
1703307415.8,286047000.3,N
1703307435.7,286046998.5,N
1703307455.5,286047000.3,N
1703307475.3,286047000.9,N
1703307495.2,286047002.5,N
1703307515.0,286046999.8,N
1703307515.9,286046999.8,N
1703307535.8,286047000.4,N
1703307555.6,286047002.2,N
1703307575.4,286047001.4,N
1703307595.3,286047002.7,N
